Location: Cisewo
(53.3833°N, 14.9000°E)
Time: 11:11:53
(UTC+00:00)

Meteor 1-26 Rocket - Pass Details

Date: 18 April 2021
Orbit: 806 x 929 km, 81.3° (Epoch: 14 May)

Event Time Altitude Azimuth Distance (km) Brightness Sun altitude
Exits shadow 22:28:03 53° 125° (SE) 1,105 4.5 -25.1°
Maximum altitude 22:28:47 57° 96° (E) 1,061 4.5 -25.1°
Drops below altitude 10° 22:34:29 10° 20° (NNE) 2,560 7.5 -25.2°
Sets 22:36:56 0° 16° (NNE) 3,485 8.5 -25.3°
